Regional Weather Roundup
Issued by NWS

Home | Current Version | Previous Version | Text Only | Print | Product List | Glossary Off
Versions: 1 2 3 4 5 6 7 8 9 10 11 12 13 14 15 16 17 18 19 20 21 22 23 24 25 26 27 28 29 30 31 32 33 34 35 36 37 38 39 40 41 42 43 44 45 46 47 48 49 50

000
ASUS43 KFSD 141010
RWRSD

WEATHER ROUNDUP FOR SOUTH DAKOTA
NATIONAL WEATHER SERVICE SIOUX FALLS SD
400 AM CST THU DEC 14 2017

NOTE: "FAIR" INDICATES FEW OR NO CLOUDS BELOW 12,000 FEET WITH NO
SIGNIFICANT WEATHER AND/OR OBSTRUCTIONS TO VISIBILITY.


SDZ001>005-009-010-012>017-141100-
NORTHWEST AND NORTH CENTRAL SOUTH DAKOTA

CITY           SKY/WX    TMP DP  RH WIND       PRES   REMARKS
BUFFALO          N/A     33  31  92 NW31      29.98R WCI  19
FAITH            N/A     34  30  85 NW14      30.00S WCI  25
MOBRIDGE       CLOUDY    28  25  88 CALM      29.96S
$$

SDZ012>016-024>037-041>051-057-063-072>074-141100-
SOUTHWEST AND SOUTH CENTRAL SOUTH DAKOTA

CITY           SKY/WX    TMP DP  RH WIND       PRES   REMARKS
RAPID CTY ARPT CLOUDY    39  24  55 NW22G29   30.05S
PIERRE         MOCLDY    33  28  81 NW5       30.00F WCI  29
CUSTER         CLOUDY    30  19  63 NW16G26   30.01F WCI  19
ELLSWORTH AFB  CLOUDY    39  25  57 NW23G35   30.03S
PHILIP         CLOUDY    35  33  92 W7        30.04F WCI  29
PINE RIDGE     CLOUDY    32  32 100 W6        30.09F WCI  26
SPEARFISH      LGT RAIN  36  23  60 NW20G29   30.08R
WINNER         CLOUDY    34  26  72 W6        30.02F WCI  29
$$

SDZ004>011-016>023-039-040-141100-
NORTHEAST SOUTH DAKOTA

CITY           SKY/WX    TMP DP  RH WIND       PRES   REMARKS
ABERDEEN       CLOUDY    27  27 100 CALM      29.99S
WATERTOWN      CLOUDY    26  25  96 NW3       29.95S
SISSETON         N/A     21  17  84 CALM      29.98S
$$

SDZ017-020-022-023-036>040-048>070-141100-
SOUTHEAST SOUTH DAKOTA

CITY           SKY/WX    TMP DP  RH WIND       PRES   REMARKS
SIOUX FALLS    CLOUDY    28  26  92 CALM      29.98F
HURON          CLOUDY    32  26  78 NW12      29.99S WCI  23
CHAMBERLAIN    CLOUDY    31  28  86 W6        30.02F WCI  25
MITCHELL       CLOUDY    34  27  75 W10       30.01S WCI  26
YANKTON        CLOUDY    33  24  69 W6        30.01S WCI  28
$$

ABBREVIATIONS USED IN REMARKS
   TC - TEMPERATURE IN CELSIUS
  WCI - WIND CHILL INDEX
   HX - HEAT INDEX
  VSB - VISIBILITY





USA.gov is the U.S. government's official web portal to all federal, state and local government web resources and services.